User: anonymous   Login
Location: Unspecified
(0.0000°N, 0.0000°E)
Time: 08:55:19
(UTC+00:00)
Language:

SJ-11-05 - Orbit

View from above orbital plane
View from above orbital plane
View from above satellite
View from above satellite

Ground track
Ground track

The orbit is defined by the following mean orbital elements,

1 39202U          26145.65177839 +.00000000 +00000-0 +80275-4 0 00009
2 39202  98.2864 330.3081 0008951 311.4623  48.5810 14.64860613    01
Epoch (UTC): 25 May 2026 15:38:33
Eccentricity: 0.0008951
inclination: 98.2864°
perigee height: 671 km
apogee height: 684 km
right ascension of ascending node: 330.3081°
argument of perigee: 311.4623°
revolutions per day: 14.64860613
mean anomaly at epoch: 48.5810°

The dashed part of the orbit path shows where the satellite is in the earth's shadow,  

DLR